Location: *
(50.2903°S, 172.5375°W)
Time: 16:24:40
(UTC+00:00)

Cosmos 1821 Rocket - Pass Details

Date: 17 November 2019
Orbit: 946 x 1004 km, 82.9° (Epoch: 10 December)

Event Time Altitude Azimuth Distance (km) Brightness Sun altitude
Rises 13:25:16 0° 189° (S) 3,716 7.8 -15.0°
Reaches altitude 10° 13:27:51 10° 186° (S) 2,754 7.1 -14.8°
Maximum altitude 13:34:09 71° 102° (ESE) 1,028 4.3 -14.2°
Drops below altitude 10° 13:40:18 10° 17° (NNE) 2,688 6.0 -13.7°
Enters shadow 13:42:13 - 15° (NNE) 3,412 6.5 -13.5°
